Location: Archemont
(49.1579°N, 1.7598°E)
Time: 16:39:22
(UTC+00:00)

CZ-4B R/B - Pass Details

Date: 03 February 2023
Orbit: 808 x 881 km, 99.0° (Epoch: 30 March)

Event Time Altitude Azimuth Distance (km) Brightness Sun altitude
Rises 17:49:38 0° 137° (SE) 3,340 6.0 -9.6°
Reaches altitude 10° 17:52:05 10° 130° (SE) 2,420 5.2 -10.0°
Maximum altitude 17:56:59 38° 64° (ENE) 1,257 3.6 -10.8°
Drops below altitude 10° 18:01:59 10° 358° (N) 2,477 5.5 -11.6°
Sets 18:04:31 0° 351° (N) 3,428 6.4 -12.0°
